Regional Weather Roundup
Issued by NWS

Home | Current Version | Previous Version | Graphics & Text | Print | Product List | Glossary On
Versions: 1 2 3 4 5 6 7 8 9 10 11 12 13 14 15 16 17 18 19 20 21 22 23 24 25 26 27 28 29 30 31 32 33 34 35 36 37 38 39 40 41 42 43 44 45 46 47 48 49 50
000
ASUS43 KIND 271159
RWRIN

WEATHER ROUNDUP FOR INDIANA
NATIONAL WEATHER SERVICE INDIANAPOLIS IN
800 AM EDT WED MAY 27 2015

NOTE: "FAIR" INDICATES FEW OR NO CLOUDS BELOW 12,000 FEET WITH NO
SIGNIFICANT WEATHER AND/OR OBSTRUCTIONS TO VISIBILITY.

* - STATION DOES NOT REPORT WEATHER SUCH AS PRECIPITATION OR FOG.

+ - STATION NOT QUALITY CONTROLLED BY THE NATIONAL WEATHER SERVICE.
    USE DATA WITH CAUTION...ESPECIALLY DEWPOINT AND RELATIVE
    HUMIDITY OBSERVATIONS.

INZ001>003-010>013-019-020-271300-
NORTHWEST INDIANA

CITY           SKY/WX    TMP DP  RH WIND       PRES   REMARKS
GARY /AIRPORT/ MOSUNNY   68  63  83 SW10      29.94R

$$

LMZ046-743>745-271300-
SOUTHERN LAKE MICHIGAN

STATION/POSITION TIME  TEMP    WIND        PRES    WAVE
                       AIR SEA DIR/SP/G            HT
                 (UTC) (F)     (DEG/KT/KT) (MB)    (FT)
BURNS HARBOR     1100   67     210/ 16/ 19 1014.6R
MICHIGAN CITY    1100   66     180/ 16/ 20   N/A
5NW MICH CITY    1100   61 52  220/ 12/ 14   N/A     2

$$

INZ004-005-014>016-021>024-271300-
NORTH CENTRAL INDIANA

CITY           SKY/WX    TMP DP  RH WIND       PRES   REMARKS
ELKHART        SUNNY     66  61  82 SW12G18   29.97R
GOSHEN         SUNNY     67  61  81 SW14      29.97R
6HR MIN TEMP:  64; 6HR MAX TEMP:  67;

SOUTH BEND     PTSUNNY   68  61  78 SW12      29.96R
6HR MIN TEMP:  65; 6HR MAX TEMP:  68;


$$

INZ006>009-017-018-025>027-271300-
NORTHEAST INDIANA

CITY           SKY/WX    TMP DP  RH WIND       PRES   REMARKS
ANGOLA *+      SUNNY     66  61  82 SW12      29.98R
FORT WAYNE     MOSUNNY   67  62  84 SW14      30.02R
6HR MIN TEMP:  63; 6HR MAX TEMP:  67;


$$

INZ028-029-035-036-043>045-051>053-271300-
WEST CENTRAL INDIANA

CITY           SKY/WX    TMP DP  RH WIND       PRES   REMARKS
GREENCASTLE +  PTSUNNY   64  59  82 S6        30.06S
LAFAYETTE      LGT RAIN  66  62  87 SW8       30.01R
6HR MIN TEMP:  64; 6HR MAX TEMP:  67; 6HR PCP: TRACE;

TERRE HAUTE    MOSUNNY   66  63  90 S8        30.04F
6HR MIN TEMP:  64; 6HR MAX TEMP:  68;


$$

INZ030>032-037>040-046>048-054>057-064-065-271300-
CENTRAL INDIANA

CITY           SKY/WX    TMP DP  RH WIND       PRES   REMARKS
GREENWOOD *+   MOSUNNY   66  61  82 S8        30.08R
INDIANAPOLIS   PTSUNNY   66  61  84 S10       30.05R
6HR MIN TEMP:  63; 6HR MAX TEMP:  67;

-EAGLE CREEK   MOSUNNY   66  62  87 SW8       30.05S
6HR MIN TEMP:  63; 6HR MAX TEMP:  67;

KOKOMO *+      SUNNY     68  61  77 SW14      30.02S
6HR MIN TEMP:  64; 6HR MAX TEMP:  68;

MT COMFORT *+  SUNNY     64 N/A N/A S8        30.07S
SHELBYVILLE    SUNNY     66  62  87 S10       30.07S
6HR MIN TEMP:  64; 6HR MAX TEMP:  68;


$$

INZ033-034-041-042-049-050-058-059-271300-
EAST CENTRAL INDIANA

CITY           SKY/WX    TMP DP  RH WIND       PRES   REMARKS
MUNCIE         SUNNY     67  61  81 SW13G18   30.05R
6HR MIN TEMP:  64; 6HR MAX TEMP:  68;


$$

INZ060-061-067>069-081>083-085>088-271300-
SOUTHWEST INDIANA

CITY           SKY/WX    TMP DP  RH WIND       PRES   REMARKS
EVANSVILLE     MOSUNNY   65  61  87 S3        30.11R FOG
6HR MIN TEMP:  62; 6HR MAX TEMP:  67;

HUNTINGBURG *+ SUNNY     64  61  88 S8        30.11R
6HR MIN TEMP:  61; 6HR MAX TEMP:  64;


$$

INZ062-063-066-070>080-084-089>092-271300-
SOUTH CENTRAL AND SOUTHEAST INDIANA

CITY           SKY/WX    TMP DP  RH WIND       PRES   REMARKS
BLOOMINGTON    MOSUNNY   65  62  90 S7        30.09R
6HR MIN TEMP:  62; 6HR MAX TEMP:  67;

MADISON *+     SUNNY     66  63  88 S7        30.13S
SEYMOUR +      SUNNY     68  63  83 S6        30.09F

$$




USA.gov is the U.S. government's official web portal to all federal, state and local government web resources and services.